Location: New Town
(33.2710°N, 90.7534°W)
Time: 19:25:12
(UTC+00:00)

Envisat - Pass Details

Date: 23 April 2021
Orbit: 764 x 766 km, 98.1° (Epoch: 06 May)

Event Time Altitude Azimuth Distance (km) Brightness Sun altitude
Rises 10:08:02 0° 40° (NE) 3,231 7.5 -15.5°
Reaches altitude 10° 10:12:20 10° 75° (ENE) 2,299 6.8 -14.7°
Maximum altitude 10:13:44 11° 91° (E) 2,224 6.4 -14.4°
Drops below altitude 10° 10:15:07 10° 108° (ESE) 2,295 6.2 -14.1°
Sets 10:19:23 0° 143° (SE) 3,215 6.4 -13.3°
